#timestamp,LO_Frequency,Hit,StdDev 
1624701615.4,286047002.8,N
1624701635.2,286047002.7,N
1624701655.1,286047001.6,N
1624701656.0,286047001.6,N
1624701675.8,286047001.6,N
1624701695.7,286047001.3,N
1624701715.5,286047001.9,N
1624701735.3,286047001.4,N
1624701755.2,286047002.5,N
1624701775.9,286047002.0,N
1624701795.7,286047001.5,N
1624701815.6,286047001.6,N
1624701835.4,286047004.2,N
1624701855.2,286047004.2,N
1624701875.1,286047002.9,N
1624701876.0,286047002.9,N
1624701895.8,286047005.9,Y
1624701915.7,286047001.7,P
1624701935.5,286047003.4,P
1624701955.3,286047003.6,P
1624701975.2,286047002.1,N
1624701995.0,286047002.5,Y
1624701995.9,286047002.5,P
1624702015.8,286047000.8,P
1624702035.6,286047001.1,N
1624702055.4,286047000.4,N
1624702075.3,286047000.4,N
1624702095.1,286046999.7,N
1624702115.8,286046999.8,N
1624702135.7,286047000.3,N
1624702155.5,286047000.9,N
1624702175.3,286046998.3,N
1624702195.2,286047001.2,N
1624702215.0,286047000.5,N
1624702215.9,286047000.5,N
1624702235.8,286046998.6,N
1624702255.6,286047000.4,N
1624702275.4,286047000.5,N
1624702295.3,286047000.3,N
1624702315.1,286047002.2,N
1624702335.8,286046999.8,N
1624702355.7,286047002.5,N
1624702375.5,286047002.4,N
1624702395.4,286047002.1,N
1624702415.2,286046999.8,N
1624702435.0,286047002.2,N
1624702435.9,286047002.2,N
1624702455.8,286047001.7,N
1624702475.6,286047001.9,N
1624702495.4,286047002.3,N
1624702515.3,286047002.7,N
1624702535.1,286047000.2,N
1624702555.9,286046999.8,N
1624702575.7,286047000.1,N
1624702595.5,286047000.6,N
1624702615.4,286047001.0,N
1624702635.2,286047001.0,N
1624702655.1,286046999.8,N
1624702656.0,286046999.8,N
1624702675.8,286047002.4,N
1624702695.6,286047002.5,N
1624702715.5,286047002.5,N
1624702735.3,286047000.4,N
1624702755.1,286046999.8,N
1624702775.9,286047002.3,N
1624702795.7,286046999.9,N
1624702815.6,286047000.0,N
1624702835.4,286047001.0,N
1624702855.2,286046999.8,N
1624702875.1,286047000.1,N
1624702876.0,286047000.1,N
1624702895.8,286047002.4,N
1624702915.7,286047002.6,N
1624702935.5,286046999.7,N
1624702955.3,286047000.5,N
1624702975.2,286046999.7,N
1624702995.0,286047002.2,N
1624702995.9,286047002.2,N
1624703015.8,286047002.6,N
1624703035.6,286047002.6,N
1624703055.4,286047002.7,N
1624703075.3,286047001.9,N
1624703095.1,286047002.6,N
1624703115.9,286047000.4,N
1624703135.7,286047000.5,N
1624703155.5,286047001.0,N
1624703175.4,286047000.9,N
1624703195.2,286047000.8,N
1624703215.0,286046999.8,N
1624703216.0,286046999.8,N
1624703235.8,286047000.2,N
1624703255.6,286047004.0,Y
1624703275.5,286047004.0,P
1624703295.3,286047003.2,N
1624703315.1,286047004.2,P
1624703335.9,286047004.1,Y
1624703355.7,286047000.6,P
1624703375.6,286047000.0,N
1624703395.4,286047002.8,N
1624703415.3,286046999.8,N
1624703435.1,286047000.3,N
1624703436.0,286047000.3,N
1624703455.8,286046998.6,N
1624703475.7,286047001.2,N
1624703495.5,286046998.3,N
1624703515.4,286046998.4,N
1624703535.2,286046998.4,N
1624703555.1,286046996.5,N
1624703556.0,286046996.5,N
1624703575.8,286046997.0,N
1624703595.7,286046997.0,N
1624703615.5,286046997.3,N
1624703635.3,286046998.0,N
1624703655.2,286046999.6,N
1624703675.0,286046997.8,N
1624703675.9,286046997.8,N
1624703695.8,286046997.4,N
1624703715.6,286046997.6,N
1624703735.4,286046994.9,N
1624703755.3,286046995.8,N
1624703775.1,286046995.2,N
1624703795.9,286046995.2,N
1624703815.9,286046997.5,N
1624703835.7,286046997.2,N
1624703855.6,286046995.8,N
1624703875.4,286046995.0,N
1624703895.2,286046998.0,N
1624703915.1,286046995.1,N
1624703916.0,286046995.1,N
1624703935.8,286046994.1,Y
1624703955.7,286046997.6,P
1624703975.5,286046997.7,P
1624703995.3,286046995.9,P
1624704015.2,286046996.1,Y
1624704035.0,286046996.8,P
1624704035.9,286046996.8,P
1624704055.8,286046997.7,P
1624704075.6,286046996.7,Y
1624704095.4,286047000.6,P
1624704115.3,286047000.8,N
1624704135.1,286046998.9,N
1624704155.9,286046998.5,N
1624704175.7,286046998.6,N
1624704195.5,286046998.5,N
1624704215.4,286046996.5,N
1624704235.2,286046999.2,N
1624704255.0,286046997.7,N
1624704255.9,286046997.7,N
1624704275.8,286046995.5,Y
1624704295.6,286046998.1,P
1624704315.5,286046998.5,P
1624704335.3,286046999.4,P
1624704355.1,286046999.6,N
1624704375.9,286046998.7,N
1624704395.7,286046998.9,N
1624704415.5,286046998.8,N
1624704435.4,286047001.2,N
1624704455.2,286047000.0,N
1624704475.1,286047000.1,N
1624704476.0,286047000.1,N
1624704495.8,286047002.8,Y
1624704515.6,286046999.7,P
1624704535.5,286047000.6,P
1624704555.3,286047000.6,N
1624704575.1,286047002.3,Y
1624704595.9,286047002.0,P
1624704615.7,286047002.7,N
1624704635.6,286046999.9,N
1624704655.4,286046999.9,N
1624704675.2,286047000.1,N
1624704695.1,286047002.6,N
1624704696.0,286047002.6,N
1624704715.8,286047004.4,Y
1624704735.6,286047002.8,P
1624704755.5,286047002.1,N
1624704775.3,286047002.8,P
1624704795.2,286047000.1,N
1624704815.9,286047000.2,N
1624704835.7,286047000.1,N
1624704855.6,286047000.0,N
1624704875.4,286047000.4,N
1624704895.2,286047000.3,N
1624704915.1,286046999.7,N
1624704916.0,286046999.7,N
1624704935.8,286047000.5,N
1624704955.7,286046999.8,N
1624704975.5,286047002.8,N
1624704995.3,286047002.5,N
1624705015.2,286047000.3,N
1624705035.0,286046999.7,N
1624705035.9,286046999.7,N
1624705055.7,286047002.5,N
1624705075.6,286047004.4,Y
1624705095.4,286047000.4,P
1624705115.3,286047002.6,P
1624705135.1,286046999.7,N
1624705136.0,286046999.7,N
1624705155.8,286047002.7,N
1624705175.7,286047002.1,N
1624705195.5,286047001.9,N
